Find Starlink 37029

NORAD ID: 68271 Int'l Des: 2026-055 Owner: SPXS Country: US Constellation: starlink operational
LEOCIRCULAR

現在のビュー

3D地球を読み込み中...

About Starlink 37029

Starlink 37029 (NORAD 68271) is a starlink constellation satellite (v2 mini) launched Mar 19, 2026 by SPXS of US. It operates in LEO, CIRCULAR orbit with a mass of 575.00 kg.

Starlink 37029について

説明を読み込み中...

次回通過

Passes for default location (London). Set your location on the main map for personalized predictions.

高度履歴

Loading altitude history...

軌道要素

1 68271U 26055K 26169.31408529 .00014420 00000-0 43702-3 0 9998
2 68271 53.1573 209.9838 0001138 105.8611 254.2517 15.34404252 15365
Epoch: Jun 18, 2026 • Age: 16 hours

現在のステータス

高度 469.6 km
速度 7.63 km/s
衛星直下点 -22.39°S, 63.83°W
打ち上げ日 Mar 19, 2026
運用期間 0.2 years
タイプ internet

技術仕様

分類 Payload
質量 575.00 kg
乾燥質量 530.00 kg
総質量 575.00 kg
長さ 0.30 m
直径 4.10 m
スパン 29.00 m
形状 Box + pan
製造者 SPXS
バスタイプ Starlink V2MO
フェーズステータス In Orbit
所有者/国 SPXS/US

Most Searched